�����͌���@�Y���u�C�̈ړ���(������),,,,,,,,,,,,
�@,Time,Time int.,,Lat.,,Long.,,Distance,,Direction,Speed,
Date(yy/mm/dd),(hh:mm),(hour),(min),(deg),(min),(deg),(min),(miles),(meter),(deg),(m/s),(knots)
2005/2/28,9:25,,,36,47.730 ,137,4.158 ,,,,,
2005/2/28,9:30,0,5,36,47.766 ,137,4.194 ,0.05 ,94.29 ,45.0 ,0.31 ,0.61 
2005/2/28,9:35,0,5,36,47.802 ,137,4.206 ,0.04 ,70.28 ,18.4 ,0.23 ,0.46 
2005/2/28,9:40,0,5,36,47.832 ,137,4.212 ,0.03 ,56.66 ,11.3 ,0.19 ,0.37 
2005/2/28,9:45,0,5,36,47.874 ,137,4.212 ,0.04 ,77.78 ,0.0 ,0.26 ,0.50 
2005/2/28,9:50,0,5,36,47.892 ,137,4.224 ,0.02 ,40.06 ,33.7 ,0.13 ,0.26 
2005/2/28,9:55,0,5,36,47.934 ,137,4.236 ,0.04 ,80.90 ,15.9 ,0.27 ,0.52 
2005/2/28,10:00,0,5,36,47.964 ,137,4.236 ,0.03 ,55.56 ,0.0 ,0.19 ,0.36 
2005/2/28,10:05,0,5,36,47.988 ,137,4.254 ,0.03 ,55.56 ,36.9 ,0.19 ,0.36 
2005/2/28,10:10,0,5,36,48.018 ,137,4.260 ,0.03 ,56.66 ,11.3 ,0.19 ,0.37 
2005/2/28,10:15,0,5,36,48.048 ,137,4.266 ,0.03 ,56.66 ,11.3 ,0.19 ,0.37 
2005/2/28,10:20,0,5,36,48.072 ,137,4.278 ,0.03 ,49.69 ,26.6 ,0.17 ,0.32 
2005/2/28,10:25,0,5,36,48.102 ,137,4.284 ,0.03 ,56.66 ,11.3 ,0.19 ,0.37 
2005/2/28,10:30,0,5,36,48.114 ,137,4.290 ,0.01 ,24.85 ,26.6 ,0.08 ,0.16 
2005/2/28,10:35,0,5,36,48.138 ,137,4.284 ,0.02 ,45.82 ,346.0 ,0.15 ,0.30 
2005/2/28,10:40,0,5,36,48.174 ,137,4.278 ,0.04 ,67.59 ,350.5 ,0.23 ,0.44 
2005/2/28,10:45,0,5,36,48.198 ,137,4.266 ,0.03 ,49.69 ,333.4 ,0.17 ,0.32 
2005/2/28,10:50,0,5,36,48.240 ,137,4.242 ,0.05 ,89.59 ,330.3 ,0.30 ,0.58 
2005/2/28,10:55,0,5,36,48.264 ,137,4.224 ,0.03 ,55.56 ,323.1 ,0.19 ,0.36 
2005/2/28,11:00,0,5,36,48.300 ,137,4.200 ,0.04 ,80.13 ,326.3 ,0.27 ,0.52 
2005/2/28,11:05,0,5,36,48.324 ,137,4.158 ,0.05 ,89.59 ,299.7 ,0.30 ,0.58 
2005/2/28,11:10,0,5,36,48.360 ,137,4.134 ,0.04 ,80.13 ,326.3 ,0.27 ,0.52 
2005/2/28,11:20,0,10,36,48.420 ,137,4.062 ,0.09 ,173.57 ,309.8 ,0.29 ,0.56 
2005/2/28,11:25,0,5,36,48.450 ,137,4.008 ,0.06 ,114.41 ,299.1 ,0.38 ,0.74 
2005/2/28,11:30,0,5,36,48.480 ,137,3.984 ,0.04 ,71.15 ,321.3 ,0.24 ,0.46 
2005/2/28,11:35,0,5,36,48.498 ,137,3.936 ,0.05 ,94.94 ,290.6 ,0.32 ,0.62 
2005/2/28,11:40,0,5,36,48.540 ,137,3.912 ,0.05 ,89.59 ,330.3 ,0.30 ,0.58 
2005/2/28,11:45,0,5,36,48.570 ,137,3.876 ,0.05 ,86.79 ,309.8 ,0.29 ,0.56 
2005/2/28,11:50,0,5,36,48.606 ,137,3.828 ,0.06 ,111.12 ,306.9 ,0.37 ,0.72 
,,,,,,,,,,,,
,,,,,,,,,,,,
�A,Time,Time int.,,Lat.,,Long.,,Distance,,Direction,Speed,
Date(yy/mm/dd),(hh:mm),(hour),(min),(deg),(min),(deg),(min),(miles),(meter),(deg),(m/s),(knots)
2005/2/28,12:05,,,36,47.814 ,137,4.176 ,,,,,
2005/2/28,12:10,0,5,36,47.844 ,137,4.194 ,0.03 ,64.79 ,31.0 ,0.22 ,0.42 
2005/2/28,12:15,0,5,36,47.856 ,137,4.194 ,0.01 ,22.22 ,0.0 ,0.07 ,0.14 
2005/2/28,12:20,0,5,36,47.880 ,137,4.212 ,0.03 ,55.56 ,36.9 ,0.19 ,0.36 
2005/2/28,12:25,0,5,36,47.904 ,137,4.218 ,0.02 ,45.82 ,14.0 ,0.15 ,0.30 
2005/2/28,12:30,0,5,36,47.934 ,137,4.224 ,0.03 ,56.66 ,11.3 ,0.19 ,0.37 
2005/2/28,12:35,0,5,36,47.940 ,137,4.236 ,0.01 ,24.85 ,63.4 ,0.08 ,0.16 
2005/2/28,12:40,0,5,36,47.970 ,137,4.254 ,0.03 ,64.79 ,31.0 ,0.22 ,0.42 
2005/2/28,12:45,0,5,36,48.012 ,137,4.260 ,0.04 ,78.57 ,8.1 ,0.26 ,0.51 
2005/2/28,12:50,0,5,36,48.042 ,137,4.260 ,0.03 ,55.56 ,0.0 ,0.19 ,0.36 
2005/2/28,12:55,0,5,36,48.054 ,137,4.266 ,0.01 ,24.85 ,26.6 ,0.08 ,0.16 
2005/2/28,13:05,0,10,36,48.108 ,137,4.260 ,0.05 ,100.62 ,353.7 ,0.17 ,0.33 
2005/2/28,13:10,0,5,36,48.168 ,137,4.254 ,0.06 ,111.67 ,354.3 ,0.37 ,0.72 
2005/2/28,13:15,0,5,36,48.186 ,137,4.242 ,0.02 ,40.06 ,326.3 ,0.13 ,0.26 
2005/2/28,13:20,0,5,36,48.210 ,137,4.236 ,0.02 ,45.82 ,346.0 ,0.15 ,0.30 
2005/2/28,13:30,0,5,36,48.276 ,137,4.200 ,0.07 ,129.59 ,329.0 ,0.43 ,0.84 
2005/2/28,13:35,0,5,36,48.276 ,137,4.182 ,0.02 ,33.34 ,270.0 ,0.11 ,0.22 
2005/2/28,13:40,0,5,36,48.300 ,137,4.152 ,0.04 ,71.15 ,308.7 ,0.24 ,0.46 
2005/2/28,13:45,0,5,36,48.330 ,137,4.110 ,0.05 ,95.59 ,305.5 ,0.32 ,0.62 
2005/2/28,13:50,0,5,36,48.360 ,137,4.074 ,0.05 ,86.79 ,309.8 ,0.29 ,0.56 
2005/2/28,13:55,0,5,36,48.390 ,137,4.032 ,0.05 ,95.59 ,305.5 ,0.32 ,0.62 
2005/2/28,14:00,0,5,36,48.420 ,137,4.008 ,0.04 ,71.15 ,321.3 ,0.24 ,0.46 
2005/2/28,14:05,0,5,36,48.468 ,137,3.990 ,0.05 ,94.94 ,339.4 ,0.32 ,0.62 
2005/2/28,14:10,0,5,36,48.480 ,137,3.948 ,0.04 ,80.90 ,285.9 ,0.27 ,0.52 
2005/2/28,14:15,0,5,36,48.510 ,137,3.912 ,0.05 ,86.79 ,309.8 ,0.29 ,0.56 
2005/2/28,14:20,0,5,36,48.552 ,137,3.894 ,0.05 ,84.63 ,336.8 ,0.28 ,0.55 
2005/2/28,14:25,0,5,36,48.582 ,137,3.864 ,0.04 ,78.57 ,315.0 ,0.26 ,0.51 
2005/2/28,14:30,0,5,36,48.600 ,137,3.822 ,0.05 ,84.63 ,293.2 ,0.28 ,0.55 
,,,,,,,,,,,,
,,,,,,,,,,,,
�B,Time,Time int.,,Lat.,,Long.,,Distance,,Direction,Speed,
Date(yy/mm/dd),(hh:mm),(hour),(min),(deg),(min),(deg),(min),(miles),(meter),(deg),(m/s),(knots)
2005/2/28,9:25,,,36,47.706 ,137,4.266 ,,,,,
2005/2/28,9:30,0,5,36,47.736 ,137,4.314 ,0.06 ,104.83 ,58.0 ,0.35 ,0.68 
2005/2/28,9:35,0,5,36,47.742 ,137,4.356 ,0.04 ,78.57 ,81.9 ,0.26 ,0.51 
2005/2/28,9:40,0,5,36,47.748 ,137,4.404 ,0.05 ,89.59 ,82.9 ,0.30 ,0.58 
2005/2/28,9:45,0,5,36,47.772 ,137,4.434 ,0.04 ,71.15 ,51.3 ,0.24 ,0.46 
2005/2/28,9:50,0,5,36,47.784 ,137,4.464 ,0.03 ,59.84 ,68.2 ,0.20 ,0.39 
2005/2/28,9:55,0,5,36,47.814 ,137,4.482 ,0.03 ,64.79 ,31.0 ,0.22 ,0.42 
2005/2/28,10:00,0,5,36,47.826 ,137,4.506 ,0.03 ,49.69 ,63.4 ,0.17 ,0.32 
2005/2/28,10:05,0,5,36,47.856 ,137,4.530 ,0.04 ,71.15 ,38.7 ,0.24 ,0.46 
2005/2/28,10:10,0,5,36,47.874 ,137,4.554 ,0.03 ,55.56 ,53.1 ,0.19 ,0.36 
2005/2/28,10:15,0,5,36,47.874 ,137,4.584 ,0.03 ,55.56 ,90.0 ,0.19 ,0.36 
2005/2/28,10:20,0,5,36,47.910 ,137,4.596 ,0.04 ,70.28 ,18.4 ,0.23 ,0.46 
2005/2/28,10:25,0,5,36,47.934 ,137,4.608 ,0.03 ,49.69 ,26.6 ,0.17 ,0.32 
2005/2/28,10:30,0,5,36,47.970 ,137,4.644 ,0.05 ,94.29 ,45.0 ,0.31 ,0.61 
2005/2/28,10:35,0,5,36,47.982 ,137,4.656 ,0.02 ,31.43 ,45.0 ,0.10 ,0.20 
2005/2/28,10:40,0,5,36,48.060 ,137,4.650 ,0.08 ,144.88 ,355.6 ,0.48 ,0.94 
2005/2/28,10:45,0,5,36,48.096 ,137,4.680 ,0.05 ,86.79 ,39.8 ,0.29 ,0.56 
2005/2/28,10:55,0,10,36,48.096 ,137,4.722 ,0.04 ,77.78 ,90.0 ,0.13 ,0.25 
2005/2/28,11:00,0,5,36,48.096 ,137,4.740 ,0.02 ,33.34 ,90.0 ,0.11 ,0.22 
,,,,,,,,,,,,
,,,,,,,,,,,,
�C,Time,Time int.,,Lat.,,Long.,,Distance,,Direction,Speed,
Date(yy/mm/dd),(hh:mm),(hour),(min),(deg),(min),(deg),(min),(miles),(meter),(deg),(m/s),(knots)
2005/2/28,12:10,,,36,47.700 ,137,4.320 ,,,,,
2005/2/28,12:15,0,5,36,47.724 ,137,4.362 ,0.05 ,89.59 ,60.3 ,0.30 ,0.58 
2005/2/28,12:20,0,5,36,47.736 ,137,4.404 ,0.04 ,80.90 ,74.1 ,0.27 ,0.52 
2005/2/28,12:25,0,5,36,47.754 ,137,4.428 ,0.03 ,55.56 ,53.1 ,0.19 ,0.36 
2005/2/28,12:30,0,5,36,47.760 ,137,4.482 ,0.05 ,100.62 ,83.7 ,0.34 ,0.65 
2005/2/28,12:35,0,5,36,47.784 ,137,4.494 ,0.03 ,49.69 ,26.6 ,0.17 ,0.32 
2005/2/28,12:40,0,5,36,47.790 ,137,4.530 ,0.04 ,67.59 ,80.5 ,0.23 ,0.44 
2005/2/28,12:45,0,5,36,47.802 ,137,4.554 ,0.03 ,49.69 ,63.4 ,0.17 ,0.32 
2005/2/28,12:50,0,5,36,47.814 ,137,4.584 ,0.03 ,59.84 ,68.2 ,0.20 ,0.39 
2005/2/28,12:55,0,5,36,47.832 ,137,4.590 ,0.02 ,35.14 ,18.4 ,0.12 ,0.23 
2005/2/28,13:00,0,5,36,47.856 ,137,4.614 ,0.03 ,62.86 ,45.0 ,0.21 ,0.41 
2005/2/28,13:05,0,5,36,47.874 ,137,4.638 ,0.03 ,55.56 ,53.1 ,0.19 ,0.36 
2005/2/28,13:10,0,5,36,47.886 ,137,4.680 ,0.04 ,80.90 ,74.1 ,0.27 ,0.52 
2005/2/28,13:15,0,5,36,47.910 ,137,4.680 ,0.02 ,44.45 ,0.0 ,0.15 ,0.29 
2005/2/28,13:20,0,5,36,47.928 ,137,4.698 ,0.03 ,47.14 ,45.0 ,0.16 ,0.31 
2005/2/28,13:25,0,5,36,47.940 ,137,4.728 ,0.03 ,59.84 ,68.2 ,0.20 ,0.39 
2005/2/28,13:30,0,5,36,47.964 ,137,4.728 ,0.02 ,44.45 ,0.0 ,0.15 ,0.29 
2005/2/28,13:35,0,5,36,47.994 ,137,4.758 ,0.04 ,78.57 ,45.0 ,0.26 ,0.51 
2005/2/28,13:45,0,10,36,48.048 ,137,4.776 ,0.06 ,105.42 ,18.4 ,0.18 ,0.34 
2005/2/28,13:55,0,10,36,48.060 ,137,4.842 ,0.07 ,124.24 ,79.7 ,0.21 ,0.40 
2005/2/28,14:00,0,5,36,48.084 ,137,4.842 ,0.02 ,44.45 ,0.0 ,0.15 ,0.29 
2005/2/28,14:05,0,5,36,48.090 ,137,4.866 ,0.02 ,45.82 ,76.0 ,0.15 ,0.30 
2005/2/28,14:10,0,5,36,48.114 ,137,4.884 ,0.03 ,55.56 ,36.9 ,0.19 ,0.36 
2005/2/28,14:15,0,5,36,48.138 ,137,4.902 ,0.03 ,55.56 ,36.9 ,0.19 ,0.36 
2005/2/28,14:20,0,5,36,48.162 ,137,4.920 ,0.03 ,55.56 ,36.9 ,0.19 ,0.36 
2005/2/28,14:25,0,5,36,48.186 ,137,4.938 ,0.03 ,55.56 ,36.9 ,0.19 ,0.36 
2005/2/28,14:30,0,5,36,48.222 ,137,4.950 ,0.04 ,70.28 ,18.4 ,0.23 ,0.46 
